Regional Weather Roundup
Issued by NWS Newport/Morehead, NC

Home | Current Version | Previous Version | Text Only | Print | Product List | Glossary On
Versions: 1 2 3 4 5 6 7 8 9 10 11 12 13 14 15 16 17 18 19 20 21 22 23 24 25 26 27 28 29 30 31 32 33 34 35 36 37 38 39 40 41 42 43 44 45 46 47 48 49 50
000
ASUS42 KMHX 230025
RWRMHX
WEATHER ROUNDUP FOR EASTERN NORTH CAROLINA
NATIONAL WEATHER SERVICE NEWPORT/MOREHEAD CITY NC
800 PM EDT THU JUN 22 2017

NOTE: "FAIR" INDICATES FEW OR NO CLOUDS BELOW 12,000 FEET
WITH NO SIGNIFICANT WEATHER AND/OR OBSTRUCTIONS TO VISIBILITY

NCZ015>017-031-032-045>047-102-103-230100-
NORTH COAST

CITY           SKY/WX    TMP DP  RH WIND       PRES   REMARKS
EDENTON        CLOUDY    83  75  78 SW7       30.02F
ELIZABETH CITY CLOUDY    82  76  81 SW8       30.01S
KITTY HAWK     CLOUDY    82  72  72 CALM      30.00F
MANTEO         CLOUDY    82  74  78 W8        30.02F

$$

NCZ045>047-081-094-103-104-230100-
CENTRAL COAST

CITY           SKY/WX    TMP DP  RH WIND       PRES   REMARKS
FRISCO         LGT RAIN  80  75  84 W8        30.05S

$$

NCZ095-097-098-100-101-230100-
SOUTHERN COAST

CITY           SKY/WX    TMP DP  RH WIND       PRES   REMARKS
BEAUFORT       CLOUDY    80  79  96 S5        30.05F
CEDAR ISLAND   NOT AVBL
JACKSONVILLE   CLOUDY    78  77  96 SW5       30.05S
PINEY ISLAND   CLOUDY   N/A N/A N/A S3        30.03F
WILMINGTON     CLOUDY    78  77  96 CALM      30.07S


$$

NCZ011>013-027>030-043-044-078>080-089-090>093-098-230100-
COASTAL PLAIN

CITY           SKY/WX    TMP DP  RH WIND       PRES   REMARKS
AHOSKIE          N/A     78  75  90 CALM      30.02S
CLINTON        CLOUDY    76  76 100 CALM      30.07S
ELIZABETHTOWN  NOT AVBL
GOLDSBORO      CLOUDY    78  77  98 S3        30.04S
GREENVILLE     CLOUDY    81  77  89 SW6       30.06S
HAVELOCK       CLOUDY    79  75  87 CALM      30.06S
KENANSVILLE    CLOUDY    77  75  94 W3        30.07R
KINSTON        MOCLDY    79  77  94 SW3       30.06S
NEW BERN       CLOUDY    77  75  93 S6        30.06R
RICHLANDS      CLOUDY    77  75  93 SW3       30.06F
ROCKY MOUNT    MOCLDY    78  75  90 S5        30.03F
WASHINGTON     CLOUDY    79  76  89 SW7       30.04S
WHITEVILLE     PTCLDY    80  76  88 S3        30.07S

$$

AMZ130-135-150-152-154-156-158-170-250-252-270-ANZ085-086-088-633-658-670-230100-
MARINE OBSERVATIONS

STATION/POSITION TIME  TEMP    WIND        PRES    WAVE   SWELL
                       AIR SEA DIR/SP/G            HT/PER HT/PER
                 (UTC) (F)     (DEG/KT/KT) (MB)    (FT/S) (FT/S)
CHESAPEAKE LIGHT NOT AVBL
64 E VA BEACH    2350   74 73  200/ 10/ 10 1016.1    2/ 9   2/ 9
DUCK             0000   82 66  240/ 11/ 14 1015.8
2 E DUCK         NOT AVBL
OREGON INLET     0000   81 83  220/ 10/ 12 1016.4
13E OREGON INLT  2348      73                N/A     3/ 8   2/ 8
HATTERAS CG      0000   79 80  260/  9/ 12 1017.3
DIAMOND BUOY     2350   80 81  240/ 16/ 17 1017.2    3/ 8   2/ 8
CAPE LOOKOUT     0000   79     200/  6/  7 1017.3
BEAUFORT LAB     0000   79 78  210/  5/  6 1017.0
30 SE NEW RVR IN 0008   79 81  240/ 10/ 12 1018.2
30 SE NEW RVR IN 0013      81                N/A     3/ 8
27 SE WRIGHTSVLE 0008   79 80  220/  8/ 10 1017.8
5 SE WRIGHTSVLE  0008   80 80  210/  8/ 12 1018.0
225 S CAPE HAT   2350   81 82  220/  8/ 10 1020.0    4/ 9   5/ 9
41 SE CHARLESTON 0010   81 81  190/ 10/ 12 1018.0

$$




USA.gov is the U.S. government's official web portal to all federal, state and local government web resources and services.